Location: ČR
(50.0000°N, 15.0000°E)
Time: 14:41:29
(UTC+00:00)

Explorer 7 - Pass Details

Date: 23 October 2021
Orbit: 483 x 675 km, 50.3° (Epoch: 27 November)

Event Time Altitude Azimuth Distance (km) Brightness Sun altitude
Rises 01:43:58 0° 286° (WNW) 2,855 - -36.7°
Reaches altitude 10° 01:46:16 10° 280° (W) 1,981 - -36.4°
Maximum altitude 01:50:39 48° 207° (SSW) 840 - -35.8°
Drops below altitude 10° 01:55:14 10° 133° (SE) 2,068 - -35.2°
Exits shadow 01:56:29 - 130° (SE) 2,539 10.4 -35.0°
Sets 01:57:41 0° 128° (SE) 2,996 10.9 -34.8°
